Showing default

YAOGAN-30 K, 43170

Orbit data source: Space-Track

YAOGAN-30 K, 43170 is a payload satellite owned by PLA SSF (CN) in LEO that was launched on Thu, 25 Jan 2018 UTC via a CHANG ZHENG 2C launch vehicle from the Xichang Space Center, China (XSC). Payloads include a variety of satellites, spacecraft, and rockets equipped with specific instruments for various scientific and technological missions. These include communications satellites like Starlink; space stations such as the ISS; scientific satellites like the Hubble; Earth observation satellites from companies like Planet Labs, Umbra, and HawkEye 360; GPS; miniature CubeSats for education and research; and military/defense satellites.

Loading next visibility...
YAOGAN-30 K details
Identifier
43170, 2018-011B
Orbit
LEO
Last TLE update5 hours ago
Origin
Flag of CNPLA SSF (CN / PRC)
ManufacturerSECM
MissionOperational Defense Sigint
Bus & MotorUnknown
Mass~500 kg wet, ~500 kg dry
Launch date (UTC)
2018-01-25 (7 years ago)
Launch vehicle
CHANG ZHENG 2C
Launch site
Xichang Space Center, China (XSC)
Object type
Payload
Rocket body
Debris
Shape & HBRBox + 2 Pan, 1 m
Radar Cross Section0.446 m², Large (>1 m²)

Expand to show TLE details & history

TLE from 5 hours ago
0 YAOGAN-30 K
1 43170U 18011B   24361.56061274  .00006719  00000-0  55753-3 0  9994
2 43170  34.9942 177.6591 0005256 313.3993  46.6275 14.98148859377412
Epoch: 2024-12-26T13:27Z
Definitive object data (Epoch: 2024-12-26T13:27:16.94Z)
Latitude-0.00007°
Longitude-119.69984°
Altitude569.027 km
Speed7.58 km/s
True Right ascension11h 50m 38s
True Declination0° 00' 00"
Sunlit
Object was in daylight at TLE epoch
Visualization TLE readout
Latitude-0.6348°
Longitude-121.81035°
Altitude568.975 km
Speed7.58 km/s
Apparent Right ascension09h 19m 49s
Apparent Declination-26° 14' 10"
Sunlit
Object is in daylight
Visualization observer readout
Local Sidereal Time17:37:20
Azimuth268.912° W
Elevation-42.233°
Doppler factor1
Orbital elements
Apogee altitude579.487 km
Perigee altitude572.177 km
Semi-major axis6,953.969 km
Eccentricity0.0005256
Inclination34.9942°
RAAN177.6591°
Arg. of periapsis313.3993°
True anomaly46.6713°
Mean anomaly46.6275°
Eccentric anomaly46.6494°
Mean motion3.74278 °/min
BSTAR0.00055753
Orbital period96.19 mins
Loading maneuver chart data...
Loading historical data...
Loading historical data...
Loading historical data...
Loading historical data...
Loading historical data...
Loading historical data...
Loading historical data...
Other satellites on launch #11 in the year 2018 (2018-01-25 UTC)

YAOGAN-30 K Visibility forecast

Observer location: undefined°, undefined

Span
Click to sort rows by Start time (UTC) header in descending order
Start Az.
Max El. time (UTC)
Max El. Az.
Max El.
End time (UTC)
End Az.
7 mins2024-12-26 18:36:52.856Z248.671° W2024-12-26 18:39:52.856Z188.53° SSW33.966°2024-12-26 18:43:52.856Z112.554° SE
5 mins2024-12-26 20:18:52.856Z242.418° WSW2024-12-26 20:20:52.856Z204.97° SW23.951°2024-12-26 20:23:52.856Z148.415° SSE
4 mins2024-12-27 15:16:52.856Z187.735° SSW2024-12-27 15:18:52.856Z153.259° SSE17.935°2024-12-27 15:20:52.856Z120.893° SE
6 mins2024-12-27 16:56:52.856Z232.252° WSW2024-12-27 16:59:52.856Z165.946° S31.696°2024-12-27 17:02:52.856Z108.196° ESE
|